QPF
0.01 0.01 0.01 0.01 0.00 0.00 0.01 0.01 0.01 0.00 0.00 0.00 0.00 0.00 0.00 0.00 0.00 0.00 0.00 0.00 0.00 0.01 0.01 0.02 0.02 0.02 0.02 0.02 0.02 0.02 0.03 0.05 0.06 0.05 0.03 0.03 0.03 0.03 0.04 0.05 0.03 0.01 0.03
0.00 0.00 0.01 0.01 0.00 0.00 0.00 0.01 0.01 0.00 0.00 0.00 0.00 0.00 0.00 0.00 0.00 0.00 0.00 0.00 0.00 0.01 0.01 0.01 0.01 0.01 0.02 0.02 0.03 0.02 0.03 0.05 0.07 0.08 0.06 0.03 0.05 0.05 0.06 0.05 0.03 0.01 0.03
0.00 0.00 0.00 0.00 0.00 0.01 0.01 0.01 0.01 0.00 0.00 0.00 0.00 0.00 0.00 0.00 0.00 0.01 0.00 0.01 0.01 0.01 0.01 0.01 0.01 0.01 0.02 0.02 0.02 0.03 0.03 0.04 0.07 0.08 0.04 0.01 0.02 0.05 0.05 0.05 0.04 0.01 0.02
0.01 0.00 0.00 0.00 0.00 0.01 0.01 0.01 0.01 0.00 0.00 0.00 0.00 0.00 0.00 0.01 0.01 0.01 0.01 0.02 0.01 0.01 0.01 0.01 0.01 0.01 0.01 0.02 0.03 0.03 0.04 0.07 0.15 0.09 0.03 0.01 0.00 0.02 0.02 0.02 0.03 0.02 0.03
0.02 0.01 0.00 0.01 0.01 0.01 0.01 0.01 0.01 0.00 0.00 0.00 0.01 0.01 0.01 0.01 0.01 0.02 0.02 0.01 0.02 0.02 0.01 0.02 0.01 0.01 0.01 0.02 0.02 0.03 0.05 0.07 0.11 0.07 0.03 0.01 0.00 0.01 0.01 0.02 0.02 0.02 0.02
0.02 0.01 0.01 0.01 0.01 0.01 0.01 0.01 0.01 0.01 0.01 0.01 0.01 0.01 0.01 0.01 0.02 0.01 0.01 0.01 0.01 0.02 0.02 0.02 0.01 0.01 0.01 0.01 0.02 0.03 0.04 0.08 0.08 0.05 0.02 0.00 0.00 0.01 0.01 0.02 0.02 0.02 0.02
0.07 0.05 0.03 0.03 0.02 0.01 0.01 0.01 0.01 0.01 0.01 0.01 0.01 0.01 0.01 0.01 0.01 0.01 0.01 0.01 0.01 0.01 0.01 0.01 0.01 0.01 0.01 0.02 0.02 0.03 0.05 0.09 0.07 0.04 0.02 0.01 0.01 0.01 0.01 0.01 0.02 0.01 0.01
0.16 0.14 0.10 0.05 0.03 0.02 0.02 0.02 0.02 0.01 0.01 0.01 0.01 0.01 0.01 0.01 0.01 0.01 0.01 0.01 0.01 0.01 0.01 0.00 0.00 0.01 0.02 0.02 0.02 0.03 0.06 0.09 0.07 0.05 0.02 0.01 0.01 0.01 0.01 0.01 0.02 0.02 0.01
0.16 0.18 0.17 0.09 0.05 0.03 0.03 0.03 0.02 0.02 0.02 0.01 0.01 0.01 0.01 0.01 0.01 0.01 0.01 0.01 0.00 0.01 0.01 0.00 0.00 0.01 0.02 0.02 0.02 0.03 0.06 0.08 0.09 0.06 0.01 0.01 0.01 0.01 0.01 0.01 0.01 0.01 0.01
0.20 0.22 0.18 0.10 0.06 0.04 0.03 0.03 0.02 0.02 0.02 0.02 0.02 0.02 0.01 0.01 0.01 0.01 0.01 0.01 0.00 0.00 0.00 0.00 0.00 0.00 0.01 0.02 0.03 0.04 0.05 0.09 0.11 0.08 0.03 0.01 0.01 0.00 0.01 0.01 0.01 0.01 0.01
0.25 0.15 0.08 0.06 0.05 0.04 0.03 0.03 0.02 0.02 0.02 0.03 0.03 0.03 0.02 0.02 0.01 0.01 0.00 0.01 0.00 0.00 0.00 0.01 0.01 0.01 0.01 0.01 0.03 0.04 0.06 0.11 0.14 0.13 0.04 0.03 0.02 0.01 0.01 0.01 0.01 0.01 0.01
0.31 0.30 0.08 0.05 0.04 0.04 0.04 0.02 0.01 0.01 0.01 0.01 0.02 0.02 0.02 0.02 0.03 0.02 0.02 0.02 0.01 0.00 0.01 0.01 0.02 0.02 0.01 0.01 0.02 0.05 0.11 0.15 0.17 0.13 0.04 0.04 0.02 0.01 0.01 0.01 0.01 0.01 0.01
0.22 0.28 0.19 0.09 0.07 0.06 0.04 0.03 0.02 0.01 0.01 0.01 0.02 0.02 0.03 0.03 0.03 0.02 0.02 0.02 0.01 0.01 0.01 0.01 0.01 0.02 0.02 0.04 0.05 0.07 0.11 0.16 0.15 0.11 0.05 0.04 0.02 0.01 0.01 0.01 0.01 0.01 0.01
0.21 0.18 0.20 0.12 0.11 0.11 0.09 0.08 0.05 0.03 0.03 0.03 0.02 0.02 0.02 0.03 0.03 0.02 0.02 0.02 0.02 0.02 0.01 0.01 0.01 0.02 0.04 0.06 0.07 0.08 0.11 0.16 0.13 0.09 0.05 0.05 0.03 0.02 0.01 0.01 0.00 0.01 0.01
0.25 0.21 0.27 0.25 0.19 0.18 0.15 0.11 0.09 0.07 0.07 0.08 0.06 0.04 0.03 0.03 0.03 0.02 0.01 0.01 0.02 0.02 0.01 0.01 0.02 0.03 0.04 0.06 0.07 0.08 0.09 0.10 0.11 0.05 0.04 0.05 0.04 0.03 0.02 0.01 0.01 0.01 0.01
0.29 0.31 0.30 0.29 0.28 0.23 0.15 0.10 0.09 0.09 0.08 0.08 0.06 0.05 0.04 0.03 0.02 0.03 0.02 0.02 0.02 0.02 0.01 0.02 0.02 0.02 0.02 0.04 0.06 0.07 0.07 0.07 0.07 0.04 0.02 0.04 0.06 0.05 0.04 0.03 0.02 0.02 0.02
0.31 0.35 0.40 0.40 0.30 0.29 0.17 0.12 0.11 0.10 0.10 0.07 0.05 0.05 0.04 0.04 0.02 0.02 0.03 0.02 0.02 0.02 0.01 0.01 0.01 0.01 0.01 0.02 0.04 0.05 0.04 0.05 0.05 0.04 0.02 0.02 0.02 0.04 0.05 0.05 0.04 0.04 0.04
0.33 0.32 0.35 0.32 0.21 0.18 0.15 0.14 0.16 0.19 0.14 0.09 0.05 0.05 0.03 0.03 0.02 0.01 0.01 0.02 0.02 0.02 0.01 0.01 0.01 0.01 0.01 0.02 0.02 0.04 0.05 0.04 0.04 0.03 0.02 0.01 0.01 0.01 0.03 0.04 0.04 0.04 0.05
0.26 0.32 0.33 0.27 0.18 0.13 0.12 0.13 0.16 0.15 0.12 0.10 0.05 0.04 0.02 0.02 0.02 0.01 0.01 0.01 0.02 0.01 0.01 0.01 0.01 0.01 0.01 0.01 0.02 0.02 0.03 0.03 0.03 0.04 0.04 0.03 0.02 0.01 0.01 0.03 0.04 0.03 0.03
0.17 0.24 0.28 0.25 0.20 0.15 0.11 0.13 0.17 0.15 0.14 0.10 0.05 0.03 0.02 0.02 0.01 0.01 0.01 0.01 0.02 0.02 0.02 0.01 0.01 0.01 0.00 0.01 0.02 0.03 0.02 0.03 0.03 0.03 0.03 0.03 0.03 0.02 0.02 0.01 0.02 0.02 0.03
0.17 0.21 0.22 0.18 0.15 0.14 0.12 0.14 0.16 0.14 0.15 0.12 0.06 0.03 0.02 0.02 0.01 0.01 0.02 0.01 0.01 0.01 0.01 0.01 0.01 0.01 0.01 0.02 0.03 0.04 0.04 0.03 0.04 0.03 0.02 0.03 0.03 0.02 0.03 0.02 0.02 0.01 0.01
0.17 0.23 0.25 0.22 0.16 0.13 0.14 0.18 0.18 0.17 0.16 0.16 0.11 0.06 0.03 0.01 0.01 0.01 0.01 0.00 0.00 0.00 0.01 0.01 0.01 0.01 0.02 0.02 0.02 0.03 0.03 0.03 0.03 0.02 0.01 0.01 0.02 0.02 0.03 0.04 0.04 0.01 0.01
0.12 0.13 0.17 0.19 0.16 0.13 0.17 0.21 0.22 0.24 0.22 0.20 0.11 0.06 0.04 0.02 0.02 0.01 0.01 0.00 0.00 0.00 0.00 0.00 0.00 0.01 0.01 0.01 0.01 0.01 0.01 0.01 0.01 0.01 0.01 0.01 0.01 0.01 0.02 0.03 0.03 0.01 0.01
0.07 0.08 0.10 0.13 0.13 0.12 0.13 0.16 0.17 0.16 0.14 0.11 0.10 0.06 0.05 0.04 0.03 0.01 0.01 0.01 0.01 0.00 0.00 0.00 0.00 0.00 0.00 0.00 0.00 0.00 0.00 0.00 0.00 0.00 0.01 0.01 0.00 0.00 0.01 0.01 0.01 0.01 0.01
0.05 0.05 0.07 0.11 0.14 0.13 0.14 0.12 0.12 0.12 0.13 0.14 0.15 0.12 0.08 0.05 0.04 0.03 0.03 0.02 0.01 0.01 0.01 0.00 0.00 0.00 0.00 0.00 0.00 0.00 0.00 0.00 0.00 0.00 0.00 0.00 0.00 0.00 0.01 0.01 0.01 0.01 0.01
0.07 0.05 0.06 0.08 0.10 0.12 0.14 0.13 0.13 0.12 0.13 0.14 0.15 0.12 0.09 0.05 0.03 0.02 0.02 0.01 0.01 0.01 0.01 0.00 0.01 0.01 0.00 0.00 0.00 0.00 0.00 0.00 0.00 0.00 0.00 0.00 0.00 0.00 0.01 0.00 0.00 0.01 0.00
MSLP
1011.46 1011.17 1011.07 1011.19 1011.47 1011.86 1012.27 1012.60 1012.82 1012.92 1012.92 1012.89 1012.90 1012.98 1013.18 1013.46 1013.79 1014.12 1014.41 1014.61 1014.72 1014.75 1014.74 1014.70 1014.67 1014.66 1014.68 1014.72 1014.77 1014.82 1014.88 1014.96 1015.08 1015.24 1015.45 1015.70 1015.97 1016.23 1016.48 1016.68 1016.83 1016.94 1017.03
1011.04 1010.91 1010.95 1011.18 1011.54 1011.97 1012.38 1012.70 1012.91 1013.00 1013.01 1013.02 1013.08 1013.23 1013.48 1013.79 1014.13 1014.45 1014.69 1014.85 1014.91 1014.91 1014.87 1014.83 1014.82 1014.84 1014.88 1014.94 1015.00 1015.05 1015.11 1015.18 1015.30 1015.46 1015.68 1015.94 1016.22 1016.50 1016.75 1016.95 1017.09 1017.20 1017.29
1010.62 1010.63 1010.80 1011.13 1011.57 1012.04 1012.46 1012.78 1012.98 1013.07 1013.12 1013.17 1013.28 1013.48 1013.75 1014.08 1014.40 1014.68 1014.87 1014.96 1014.98 1014.95 1014.91 1014.89 1014.91 1014.96 1015.05 1015.13 1015.21 1015.28 1015.35 1015.43 1015.55 1015.73 1015.95 1016.22 1016.51 1016.78 1017.02 1017.21 1017.35 1017.46 1017.55
1010.26 1010.39 1010.67 1011.09 1011.59 1012.09 1012.52 1012.84 1013.04 1013.15 1013.22 1013.31 1013.47 1013.69 1013.98 1014.29 1014.58 1014.81 1014.94 1014.98 1014.96 1014.92 1014.90 1014.92 1014.99 1015.10 1015.23 1015.35 1015.46 1015.55 1015.63 1015.72 1015.86 1016.04 1016.27 1016.54 1016.82 1017.08 1017.31 1017.48 1017.61 1017.71 1017.80
1010.03 1010.25 1010.62 1011.10 1011.64 1012.16 1012.60 1012.91 1013.11 1013.23 1013.33 1013.45 1013.63 1013.87 1014.16 1014.45 1014.70 1014.87 1014.95 1014.96 1014.93 1014.90 1014.92 1014.99 1015.12 1015.29 1015.46 1015.62 1015.76 1015.86 1015.95 1016.05 1016.19 1016.38 1016.62 1016.89 1017.16 1017.40 1017.60 1017.76 1017.87 1017.96 1018.06
1009.95 1010.24 1010.67 1011.20 1011.76 1012.28 1012.70 1012.99 1013.19 1013.31 1013.42 1013.57 1013.77 1014.03 1014.31 1014.58 1014.79 1014.92 1014.97 1014.96 1014.94 1014.95 1015.01 1015.15 1015.34 1015.56 1015.77 1015.96 1016.10 1016.20 1016.30 1016.40 1016.54 1016.74 1016.98 1017.24 1017.49 1017.72 1017.89 1018.02 1018.12 1018.21 1018.32
1010.04 1010.37 1010.84 1011.39 1011.95 1012.44 1012.83 1013.09 1013.27 1013.39 1013.51 1013.68 1013.91 1014.18 1014.46 1014.72 1014.90 1015.01 1015.05 1015.04 1015.05 1015.10 1015.22 1015.41 1015.65 1015.91 1016.14 1016.33 1016.46 1016.55 1016.63 1016.73 1016.87 1017.07 1017.31 1017.57 1017.81 1018.02 1018.17 1018.28 1018.36 1018.44 1018.56
1010.24 1010.61 1011.10 1011.65 1012.19 1012.64 1012.98 1013.21 1013.35 1013.47 1013.60 1013.80 1014.05 1014.35 1014.64 1014.89 1015.08 1015.18 1015.22 1015.23 1015.26 1015.35 1015.51 1015.74 1016.01 1016.28 1016.51 1016.68 1016.79 1016.85 1016.91 1017.00 1017.14 1017.34 1017.58 1017.84 1018.09 1018.28 1018.42 1018.52 1018.58 1018.66 1018.78
1010.48 1010.89 1011.40 1011.95 1012.45 1012.86 1013.14 1013.32 1013.43 1013.54 1013.69 1013.92 1014.21 1014.53 1014.85 1015.12 1015.31 1015.42 1015.46 1015.49 1015.54 1015.65 1015.83 1016.07 1016.34 1016.60 1016.81 1016.95 1017.02 1017.06 1017.10 1017.18 1017.32 1017.53 1017.79 1018.06 1018.31 1018.51 1018.65 1018.73 1018.80 1018.87 1018.99
1010.70 1011.15 1011.69 1012.22 1012.69 1013.04 1013.28 1013.41 1013.50 1013.61 1013.78 1014.04 1014.37 1014.74 1015.09 1015.38 1015.59 1015.70 1015.75 1015.78 1015.83 1015.94 1016.12 1016.35 1016.60 1016.82 1017.00 1017.10 1017.15 1017.16 1017.19 1017.27 1017.43 1017.65 1017.93 1018.23 1018.49 1018.71 1018.86 1018.95 1019.01 1019.08 1019.19
1010.81 1011.32 1011.88 1012.42 1012.86 1013.17 1013.36 1013.46 1013.54 1013.65 1013.85 1014.14 1014.52 1014.93 1015.32 1015.64 1015.85 1015.97 1016.01 1016.03 1016.07 1016.16 1016.32 1016.52 1016.73 1016.93 1017.07 1017.14 1017.17 1017.19 1017.22 1017.31 1017.48 1017.73 1018.04 1018.36 1018.65 1018.88 1019.05 1019.15 1019.22 1019.29 1019.39
1010.77 1011.35 1011.95 1012.49 1012.91 1013.19 1013.35 1013.44 1013.51 1013.65 1013.88 1014.21 1014.63 1015.08 1015.50 1015.83 1016.06 1016.18 1016.22 1016.22 1016.24 1016.30 1016.42 1016.58 1016.76 1016.93 1017.05 1017.12 1017.15 1017.18 1017.23 1017.35 1017.54 1017.82 1018.14 1018.48 1018.79 1019.04 1019.23 1019.35 1019.43 1019.51 1019.60
1010.56 1011.21 1011.84 1012.39 1012.81 1013.09 1013.24 1013.33 1013.42 1013.58 1013.85 1014.22 1014.67 1015.15 1015.59 1015.94 1016.18 1016.30 1016.34 1016.33 1016.33 1016.37 1016.46 1016.59 1016.75 1016.90 1017.02 1017.10 1017.16 1017.21 1017.30 1017.44 1017.65 1017.94 1018.27 1018.61 1018.93 1019.19 1019.40 1019.54 1019.64 1019.72 1019.81
1010.20 1010.89 1011.55 1012.12 1012.54 1012.83 1013.00 1013.12 1013.25 1013.45 1013.75 1014.16 1014.63 1015.12 1015.57 1015.94 1016.18 1016.32 1016.36 1016.37 1016.37 1016.40 1016.48 1016.60 1016.75 1016.91 1017.04 1017.15 1017.25 1017.34 1017.46 1017.62 1017.84 1018.12 1018.43 1018.75 1019.05 1019.31 1019.52 1019.68 1019.81 1019.91 1020.01
1009.71 1010.42 1011.09 1011.66 1012.11 1012.42 1012.64 1012.82 1013.01 1013.26 1013.60 1014.02 1014.51 1015.00 1015.45 1015.82 1016.09 1016.25 1016.32 1016.36 1016.39 1016.44 1016.54 1016.68 1016.84 1017.01 1017.18 1017.32 1017.46 1017.59 1017.73 1017.91 1018.11 1018.35 1018.62 1018.89 1019.15 1019.38 1019.59 1019.76 1019.91 1020.04 1020.17
1009.13 1009.82 1010.48 1011.05 1011.52 1011.89 1012.18 1012.44 1012.71 1013.02 1013.40 1013.84 1014.33 1014.81 1015.25 1015.62 1015.90 1016.10 1016.24 1016.33 1016.42 1016.53 1016.67 1016.84 1017.03 1017.23 1017.43 1017.61 1017.78 1017.94 1018.10 1018.26 1018.44 1018.62 1018.81 1019.00 1019.20 1019.39 1019.57 1019.75 1019.92 1020.09 1020.24
1008.53 1009.15 1009.77 1010.33 1010.83 1011.27 1011.66 1012.02 1012.39 1012.78 1013.21 1013.66 1014.12 1014.58 1015.00 1015.37 1015.67 1015.92 1016.13 1016.31 1016.48 1016.67 1016.86 1017.08 1017.31 1017.54 1017.76 1017.97 1018.17 1018.35 1018.50 1018.64 1018.77 1018.88 1018.99 1019.09 1019.19 1019.32 1019.46 1019.63 1019.82 1020.03 1020.22
1007.96 1008.48 1009.03 1009.57 1010.11 1010.63 1011.14 1011.63 1012.11 1012.59 1013.06 1013.51 1013.95 1014.36 1014.75 1015.10 1015.43 1015.73 1016.01 1016.29 1016.56 1016.82 1017.09 1017.35 1017.61 1017.86 1018.10 1018.33 1018.54 1018.72 1018.88 1018.99 1019.07 1019.12 1019.13 1019.14 1019.15 1019.20 1019.29 1019.44 1019.63 1019.86 1020.10
1007.47 1007.87 1008.33 1008.86 1009.43 1010.04 1010.67 1011.30 1011.91 1012.47 1012.99 1013.44 1013.84 1014.20 1014.54 1014.87 1015.20 1015.54 1015.90 1016.26 1016.62 1016.96 1017.29 1017.59 1017.87 1018.13 1018.38 1018.61 1018.83 1019.02 1019.17 1019.28 1019.33 1019.31 1019.26 1019.18 1019.10 1019.07 1019.10 1019.20 1019.39 1019.62 1019.88
1007.12 1007.39 1007.76 1008.25 1008.85 1009.55 1010.30 1011.07 1011.80 1012.46 1013.01 1013.46 1013.82 1014.12 1014.40 1014.68 1015.00 1015.37 1015.78 1016.21 1016.64 1017.05 1017.42 1017.75 1018.04 1018.30 1018.54 1018.77 1019.00 1019.20 1019.37 1019.48 1019.52 1019.49 1019.38 1019.24 1019.09 1018.98 1018.94 1018.99 1019.13 1019.34 1019.61
1006.94 1007.08 1007.35 1007.81 1008.43 1009.20 1010.06 1010.95 1011.80 1012.54 1013.13 1013.57 1013.89 1014.12 1014.33 1014.57 1014.86 1015.23 1015.67 1016.14 1016.62 1017.07 1017.47 1017.81 1018.10 1018.34 1018.58 1018.81 1019.05 1019.28 1019.48 1019.63 1019.69 1019.66 1019.55 1019.37 1019.16 1018.98 1018.86 1018.83 1018.91 1019.08 1019.31
1006.94 1006.97 1007.16 1007.56 1008.18 1009.00 1009.94 1010.93 1011.86 1012.67 1013.29 1013.73 1014.01 1014.19 1014.34 1014.52 1014.78 1015.13 1015.57 1016.07 1016.57 1017.04 1017.45 1017.78 1018.06 1018.29 1018.51 1018.75 1019.01 1019.28 1019.53 1019.73 1019.85 1019.86 1019.76 1019.57 1019.33 1019.09 1018.89 1018.78 1018.77 1018.87 1019.04
1007.12 1007.05 1007.15 1007.50 1008.10 1008.92 1009.90 1010.94 1011.93 1012.79 1013.44 1013.88 1014.14 1014.28 1014.39 1014.52 1014.75 1015.08 1015.51 1016.01 1016.51 1016.98 1017.38 1017.71 1017.96 1018.18 1018.40 1018.64 1018.93 1019.24 1019.55 1019.82 1020.01 1020.07 1020.01 1019.84 1019.58 1019.30 1019.03 1018.83 1018.73 1018.73 1018.81
1007.42 1007.28 1007.31 1007.57 1008.11 1008.90 1009.87 1010.92 1011.93 1012.82 1013.49 1013.95 1014.21 1014.35 1014.44 1014.56 1014.76 1015.08 1015.50 1015.98 1016.47 1016.93 1017.32 1017.63 1017.87 1018.07 1018.29 1018.54 1018.85 1019.20 1019.56 1019.90 1020.15 1020.28 1020.27 1020.13 1019.87 1019.56 1019.23 1018.95 1018.75 1018.65 1018.65
1007.79 1007.59 1007.54 1007.71 1008.16 1008.87 1009.78 1010.79 1011.80 1012.69 1013.39 1013.88 1014.18 1014.35 1014.46 1014.59 1014.80 1015.11 1015.52 1015.99 1016.47 1016.91 1017.28 1017.57 1017.80 1018.00 1018.21 1018.46 1018.78 1019.16 1019.56 1019.94 1020.25 1020.44 1020.47 1020.36 1020.12 1019.80 1019.44 1019.10 1018.82 1018.63 1018.53
1008.15 1007.91 1007.78 1007.84 1008.17 1008.76 1009.58 1010.52 1011.49 1012.37 1013.11 1013.65 1014.01 1014.24 1014.41 1014.59 1014.83 1015.16 1015.57 1016.03 1016.49 1016.92 1017.28 1017.55 1017.77 1017.96 1018.16 1018.41 1018.73 1019.11 1019.52 1019.92 1020.26 1020.48 1020.55 1020.47 1020.26 1019.95 1019.58 1019.21 1018.88 1018.62 1018.45
Thickness
5787 5789 5787 5786 5784 5783 5782 5780 5779 5778 5777 5777 5776 5775 5774 5772 5771 5769 5767 5766 5764 5762 5761 5759 5758 5756 5755 5754 5753 5752 5751 5750 5748 5747 5746 5744 5743 5741 5740 5738 5737 5736 5735
5793 5789 5787 5785 5783 5782 5780 5779 5778 5776 5776 5775 5774 5773 5772 5771 5769 5768 5766 5764 5763 5761 5759 5758 5756 5755 5753 5752 5751 5750 5749 5748 5747 5745 5744 5743 5741 5740 5738 5737 5736 5735 5733
5793 5788 5785 5783 5782 5780 5779 5777 5776 5775 5774 5773 5773 5772 5771 5769 5768 5767 5765 5763 5761 5759 5758 5756 5754 5753 5751 5750 5749 5748 5747 5746 5745 5743 5742 5741 5740 5738 5737 5736 5735 5734 5732
5791 5787 5784 5781 5779 5778 5777 5775 5774 5773 5772 5771 5771 5770 5769 5768 5766 5765 5763 5761 5759 5758 5756 5754 5753 5751 5749 5748 5747 5746 5745 5744 5743 5741 5740 5739 5738 5737 5736 5735 5733 5733 5732
5789 5785 5782 5780 5778 5776 5774 5773 5772 5771 5770 5770 5769 5768 5767 5766 5765 5763 5761 5760 5758 5756 5754 5752 5751 5749 5747 5746 5745 5744 5743 5742 5741 5739 5738 5737 5736 5735 5734 5733 5732 5731 5731
5786 5783 5780 5778 5776 5774 5773 5771 5770 5769 5768 5768 5767 5766 5765 5764 5763 5761 5760 5758 5756 5754 5752 5750 5748 5747 5745 5744 5743 5742 5741 5740 5739 5738 5736 5735 5734 5734 5733 5731 5731 5730 5729
5783 5780 5777 5775 5774 5772 5771 5770 5768 5767 5766 5766 5765 5764 5763 5762 5761 5759 5758 5756 5754 5752 5750 5748 5746 5745 5743 5742 5741 5740 5739 5738 5737 5735 5734 5734 5733 5732 5731 5730 5729 5728 5728
5781 5777 5774 5772 5771 5770 5769 5767 5766 5765 5765 5764 5763 5762 5761 5760 5759 5757 5755 5754 5751 5750 5748 5746 5744 5743 5742 5741 5740 5739 5738 5737 5734 5733 5732 5732 5731 5730 5729 5728 5727 5726 5726
5777 5774 5771 5768 5767 5766 5766 5765 5764 5763 5762 5762 5761 5760 5759 5757 5756 5755 5753 5751 5749 5747 5745 5744 5742 5741 5740 5739 5738 5737 5736 5736 5733 5731 5730 5730 5729 5728 5727 5726 5726 5725 5724
5773 5770 5767 5765 5763 5762 5762 5762 5761 5760 5760 5759 5758 5757 5756 5755 5754 5752 5751 5749 5747 5745 5743 5742 5740 5739 5739 5738 5737 5736 5735 5734 5732 5730 5729 5728 5727 5726 5725 5724 5724 5723 5722
5767 5765 5764 5761 5759 5759 5758 5758 5758 5757 5757 5757 5756 5755 5754 5753 5752 5750 5749 5747 5745 5743 5741 5740 5739 5738 5737 5736 5735 5734 5733 5732 5731 5729 5728 5727 5726 5725 5723 5722 5722 5721 5721
5761 5760 5760 5758 5756 5756 5755 5755 5754 5755 5754 5754 5754 5753 5752 5750 5749 5748 5747 5745 5744 5742 5740 5738 5737 5736 5735 5735 5734 5733 5732 5731 5729 5728 5727 5726 5725 5723 5722 5721 5720 5719 5719
5763 5760 5757 5756 5754 5753 5753 5751 5751 5752 5752 5751 5750 5750 5750 5748 5747 5746 5745 5743 5742 5740 5738 5737 5736 5735 5734 5733 5732 5732 5731 5730 5728 5727 5726 5724 5723 5722 5720 5719 5718 5718 5717
5759 5758 5756 5754 5752 5751 5750 5749 5748 5749 5749 5748 5748 5748 5748 5746 5745 5744 5743 5742 5740 5739 5738 5736 5735 5734 5733 5732 5731 5730 5730 5728 5726 5725 5724 5723 5722 5720 5719 5718 5717 5716 5716
5758 5755 5753 5752 5751 5749 5747 5746 5746 5746 5747 5747 5747 5747 5746 5745 5744 5743 5742 5741 5739 5738 5737 5735 5734 5733 5732 5731 5730 5729 5728 5727 5725 5724 5723 5721 5720 5719 5718 5717 5716 5715 5714
5758 5755 5752 5750 5750 5747 5746 5745 5745 5745 5746 5747 5746 5746 5745 5745 5744 5743 5741 5740 5739 5738 5737 5735 5734 5733 5731 5730 5729 5728 5727 5726 5723 5722 5721 5720 5719 5717 5716 5715 5715 5714 5713
5759 5754 5752 5749 5748 5745 5744 5744 5744 5744 5745 5745 5745 5744 5744 5744 5744 5743 5741 5740 5739 5738 5737 5736 5734 5733 5731 5730 5728 5727 5725 5724 5722 5721 5720 5719 5718 5716 5715 5714 5714 5713 5712
5757 5752 5751 5750 5747 5745 5744 5744 5744 5744 5744 5744 5744 5743 5743 5744 5744 5742 5741 5740 5739 5738 5737 5735 5733 5731 5729 5728 5726 5725 5724 5723 5722 5721 5719 5718 5717 5716 5715 5714 5713 5712 5712
5757 5751 5748 5748 5746 5744 5743 5742 5743 5743 5742 5742 5742 5742 5742 5743 5743 5742 5741 5740 5739 5738 5736 5735 5732 5730 5727 5726 5726 5725 5724 5723 5722 5721 5719 5719 5718 5716 5715 5714 5713 5712 5711
5757 5752 5748 5746 5744 5743 5741 5740 5740 5739 5740 5740 5741 5741 5741 5741 5741 5741 5740 5739 5738 5737 5735 5734 5732 5730 5728 5727 5727 5724 5723 5724 5723 5722 5721 5720 5718 5717 5716 5715 5714 5712 5711
5755 5751 5748 5745 5744 5742 5740 5738 5736 5735 5736 5737 5739 5740 5740 5740 5740 5740 5739 5738 5737 5736 5734 5734 5732 5729 5727 5727 5723 5719 5720 5722 5722 5722 5722 5720 5719 5719 5717 5716 5714 5713 5712
5754 5750 5747 5745 5744 5742 5741 5739 5738 5736 5735 5735 5736 5737 5738 5738 5738 5739 5738 5737 5737 5735 5733 5733 5732 5728 5727 5727 5721 5714 5711 5713 5719 5723 5722 5721 5721 5720 5718 5717 5716 5714 5713
5755 5752 5751 5747 5745 5743 5742 5740 5737 5734 5731 5730 5731 5733 5736 5737 5738 5738 5737 5737 5736 5735 5733 5732 5732 5729 5724 5725 5725 5719 5710 5706 5712 5719 5722 5723 5722 5721 5720 5719 5718 5717 5715
5758 5756 5753 5749 5746 5744 5743 5740 5737 5732 5729 5730 5732 5733 5734 5735 5736 5737 5737 5736 5735 5735 5733 5732 5732 5730 5727 5723 5724 5724 5722 5719 5712 5710 5717 5721 5722 5721 5721 5721 5720 5719 5717
5759 5756 5753 5750 5747 5745 5743 5741 5737 5734 5733 5732 5732 5731 5732 5733 5735 5736 5736 5735 5734 5734 5733 5732 5731 5730 5728 5725 5723 5722 5721 5720 5718 5712 5709 5714 5717 5721 5722 5722 5721 5720 5719
5758 5756 5753 5749 5746 5745 5743 5740 5738 5735 5733 5731 5730 5729 5730 5731 5733 5734 5734 5734 5734 5733 5732 5731 5730 5729 5727 5725 5723 5722 5720 5718 5716 5713 5710 5710 5712 5717 5721 5722 5721 5721 5720